KTXEAGLE7 Weather Reports


Display with metric or nautical units.
time (UTC)temp
F
wind
direction
speed
MPH
gust
MPH
rain 1hr
in
rain 24hr
in
rain mn
in
humidity
%
barometer
mb
20260506173023 78 92 3.0 8.0 0.00 0.00 0.00 94 1011.2
20260506171527 78 93 3.0 7.0 0.00 0.00 0.00 94 1011.3
20260506170027 78 126 5.0 9.0 0.00 0.00 0.00 93 1011.4
20260506164541 78 121 3.0 7.0 0.00 0.00 0.00 92 1011.3
20260506163022 79 125 5.0 9.0 0.00 0.00 0.00 92 1011.2
20260506161522 78 124 8.0 10.0 0.00 0.00 0.00 93 1011.0
20260506160017 78 119 7.0 11.0 0.00 0.00 0.00 92 1010.7
20260506154515 78 133 4.0 9.0 0.00 0.00 0.00 93 1010.8
20260506153013 78 147 4.0 8.0 0.00 0.00 0.00 93 1010.8
20260506151514 77 124 4.0 8.0 0.00 0.00 0.00 94 1010.3
20260506150008 77 132 8.0 11.0 0.00 0.00 0.00 94 1010.2
20260506144511 77 130 5.0 10.0 0.00 0.00 0.00 95 1010.2
20260506143006 76 125 7.0 15.0 0.00 0.00 0.00 96 1009.9
20260506141511 76 140 7.0 12.0 0.00 0.00 0.00 97 1009.8
20260506140002 75 121 8.0 10.0 0.00 0.00 0.00 98 1009.7
20260506134502 75 121 7.0 10.0 0.00 0.00 0.00 98 1009.8
20260506133003 75 123 6.0 11.0 0.00 0.00 0.00 98 1009.9
20260506131502 75 117 6.0 10.0 0.00 0.00 0.00 99 1009.9
20260506130000 75 118 5.0 10.0 0.00 0.00 0.00 99 1009.9
20260506124601 74 119 7.0 11.0 0.00 0.00 0.00 99 1009.8
20260506123100 74 133 5.0 9.0 0.00 0.00 0.00 99 1009.7
20260506121601 74 148 6.0 10.0 0.00 0.00 0.00 99 1009.6
20260506120110 74 136 5.0 9.0 0.00 0.00 0.00 98 1009.4
20260506114559 74 151 5.0 8.0 0.00 0.00 0.00 98 1009.4
20260506113058 74 153 4.0 8.0 0.00 0.00 0.00 98 1009.3
20260506111557 74 138 5.0 9.0 0.00 0.00 0.00 98 1009.0
20260506110112 74 152 6.0 10.0 0.00 0.00 0.00 98 1008.9
20260506104611 74 156 7.0 11.0 0.00 0.00 0.00 99 1008.9
20260506103052 74 150 7.0 10.0 0.00 0.00 0.00 99 1008.7
20260506101552 74 153 6.0 9.0 0.00 0.00 0.00 98 1008.8
20260506100058 74 170 4.0 7.0 0.00 0.00 0.00 98 1008.8
20260506094555 74 142 3.0 7.0 0.00 0.00 0.00 98 1008.8
20260506093046 74 148 5.0 8.0 0.00 0.00 0.00 98 1008.8
20260506091545 74 144 5.0 8.0 0.00 0.00 0.00 98 1008.7
20260506090043 75 144 4.0 7.0 0.00 0.00 0.00 98 1008.8
20260506084613 75 138 1.0 4.0 0.00 0.00 0.00 98 1009.1
20260506083043 75 138 1.0 7.0 0.00 0.00 0.00 98 1009.0
20260506081551 75 153 3.0 6.0 0.00 0.00 0.00 98 1008.8
20260506073037 75 192 6.0 11.0 0.00 0.00 0.00 97 1009.1
20260506071536 75 159 6.0 10.0 0.00 0.00 0.00 97 1009.4
20260506061529 75 170 6.0 12.0 0.00 0.00 0.00 96 1009.7
20260506044521 76 152 4.0 8.0 0.00 0.00 0.00 95 1009.8
20260506043020 76 143 3.0 6.0 0.00 0.00 0.00 95 1009.9
20260506041519 76 150 3.0 9.0 0.00 0.00 0.00 94 1009.8
20260506040019 76 144 7.0 12.0 0.00 0.00 0.00 94 1009.6
20260506034520 76 152 5.0 11.0 0.00 0.00 0.00 94 1009.6
20260506033018 76 135 6.0 10.0 0.00 0.00 0.00 94 1009.3
20260506031518 76 135 5.0 12.0 0.00 0.00 0.00 93 1008.9
20260506030017 76 170 8.0 15.0 0.00 0.00 0.00 93 1008.6
20260506024517 76 157 6.0 14.0 0.00 0.00 0.00 91 1008.6
20260506023031 77 170 7.0 11.0 0.00 0.00 0.00 91 1008.6
20260506021531 77 164 7.0 14.0 0.00 0.00 0.00 91 1008.5
20260506020014 77 162 6.0 12.0 0.00 0.00 0.00 91 1008.1
20260506014518 77 161 4.0 9.0 0.00 0.00 0.00 91 1007.9
20260506013015 77 162 5.0 9.0 0.00 0.00 0.00 90 1007.7
20260506011514 77 163 5.0 12.0 0.00 0.00 0.00 90 1007.6
20260506010014 78 157 7.0 12.0 0.00 0.00 0.00 89 1007.3
20260506004513 78 172 5.0 10.0 0.00 0.00 0.00 88 1007.3
20260506003014 78 160 8.0 15.0 0.00 0.00 0.00 87 1007.1
20260506001511 79 169 8.0 14.0 0.00 0.00 0.00 86 1007.0
20260506000012 79 151 6.0 17.0 0.00 0.00 0.00 86 1007.0
20260505234513 79 167 10.0 18.0 0.00 0.00 0.00 85 1006.9
20260505233009 79 188 10.0 21.0 0.00 0.00 0.00 84 1006.8
20260505231514 80 152 12.0 23.0 0.00 0.00 0.00 84 1006.8
20260505230020 80 178 12.0 23.0 0.00 0.00 0.00 84 1006.8
20260505224512 80 169 11.0 22.0 0.00 0.00 0.00 83 1006.8
20260505223006 80 185 10.0 20.0 0.00 0.00 0.00 84 1007.0
20260505221506 80 178 14.0 22.0 0.00 0.00 0.00 84 1007.1
20260505220004 80 149 10.0 19.0 0.00 0.00 0.00 85 1007.2
20260505214502 80 172 9.0 17.0 0.00 0.00 0.00 85 1007.6
20260505213101 80 189 13.0 21.0 0.00 0.00 0.00 84 1007.7
20260505211600 80 167 15.0 21.0 0.00 0.00 0.00 84 1007.7
20260505210058 80 184 12.0 22.0 0.00 0.00 0.00 84 1007.9
20260505204555 80 187 14.0 22.0 0.00 0.00 0.00 85 1008.2
20260505203112 80 196 17.0 25.0 0.00 0.00 0.00 84 1008.4
20260505201600 79 168 14.0 22.0 0.00 0.00 0.00 85 1008.7
20260505200054 80 180 13.0 21.0 0.00 0.00 0.00 86 1009.0
20260505194549 79 173 12.0 20.0 0.00 0.00 0.00 86 1008.9
20260505193048 79 183 12.0 19.0 0.00 0.00 0.00 87 1009.2
20260505191552 79 194 12.0 19.0 0.00 0.00 0.00 87 1009.3
20260505190044 79 184 10.0 15.0 0.00 0.00 0.00 88 1009.4
20260505184544 78 195 8.0 15.0 0.00 0.00 0.00 88 1009.3
20260505183043 79 179 8.0 19.0 0.00 0.00 0.00 89 1009.4
20260505181545 78 185 13.0 20.0 0.00 0.00 0.00 87 1009.5
20260505180041 78 196 10.0 21.0 0.00 0.00 0.00 87 1009.7
20260505174544 79 185 11.0 20.0 0.00 0.00 0.00 87 1010.0